Location: *
(50.3194°N, 7.1067°E)
Time: 03:48:12
(UTC+00:00)

Cosmos 1674 - Pass Details

Date: 22 September 2019
Orbit: 495 x 519 km, 82.5° (Epoch: 20 October)

Event Time Altitude Azimuth Distance (km) Brightness Sun altitude
Rises 18:40:46 0° 357° (N) 2,599 6.5 -11.9°
Reaches altitude 10° 18:43:02 10° 7° (N) 1,708 5.4 -12.3°
Maximum altitude 18:46:27 33° 73° (ENE) 850 3.3 -12.8°
Enters shadow 18:48:17 21° 123° (ESE) 1,159 3.9 -13.1°
